TimeMST,TemperatureF,Dew PointF,Humidity,Sea Level PressureIn,VisibilityMPH,Wind Direction,Wind SpeedMPH,Gust SpeedMPH,PrecipitationIn,Events,Conditions,WindDirDegrees,DateUTC
12:53 AM,12.9,5.0,71,30.29,10.0,East,5.8,-,N/A,,Clear,90,2013-01-06 07:53:00
1:53 AM,12.0,3.9,70,30.28,10.0,Calm,Calm,-,N/A,,Clear,0,2013-01-06 08:53:00
2:53 AM,14.0,6.1,71,30.27,10.0,ESE,4.6,-,N/A,,Clear,110,2013-01-06 09:53:00
3:53 AM,16.0,7.0,68,30.26,10.0,ESE,5.8,-,N/A,,Scattered Clouds,110,2013-01-06 10:53:00
5:53 AM,18.0,10.0,71,30.24,10.0,North,3.5,-,N/A,,Overcast,350,2013-01-06 12:53:00
6:53 AM,18.0,10.0,71,30.24,10.0,SW,5.8,-,N/A,,Overcast,230,2013-01-06 13:53:00
7:53 AM,19.0,10.9,71,30.24,10.0,SW,6.9,-,N/A,,Mostly Cloudy,220,2013-01-06 14:53:00
8:53 AM,19.0,12.0,74,30.22,10.0,North,5.8,-,N/A,,Clear,10,2013-01-06 15:53:00
9:53 AM,18.0,10.9,74,30.24,8.0,NNW,4.6,-,N/A,,Mostly Cloudy,340,2013-01-06 16:53:00
10:53 AM,19.0,10.9,71,30.25,9.0,West,6.9,-,N/A,,Clear,260,2013-01-06 17:53:00
11:53 AM,19.0,10.9,71,30.25,9.0,SW,8.1,-,N/A,,Scattered Clouds,230,2013-01-06 18:53:00
12:53 PM,21.9,12.0,66,30.21,10.0,WSW,6.9,-,N/A,,Overcast,240,2013-01-06 19:53:00
1:53 PM,21.9,12.0,66,30.19,9.0,WNW,8.1,-,N/A,,Overcast,290,2013-01-06 20:53:00
2:53 PM,21.9,12.0,66,30.19,9.0,West,6.9,-,N/A,,Overcast,280,2013-01-06 21:53:00
3:53 PM,19.9,10.9,68,30.21,7.0,West,5.8,-,N/A,,Clear,280,2013-01-06 22:53:00
4:53 PM,17.1,10.0,74,30.22,7.0,SW,4.6,-,N/A,,Clear,220,2013-01-06 23:53:00
5:53 PM,10.9,5.0,77,30.23,8.0,South,6.9,-,N/A,,Clear,180,2013-01-07 00:53:00
6:53 PM,12.9,6.1,74,30.23,9.0,South,9.2,-,N/A,,Clear,190,2013-01-07 01:53:00
7:53 PM,12.9,5.0,71,30.26,9.0,South,9.2,-,N/A,,Clear,190,2013-01-07 02:53:00
8:53 PM,10.0,3.0,73,30.26,9.0,South,8.1,-,N/A,,Clear,180,2013-01-07 03:53:00
9:53 PM,15.1,6.1,68,30.25,10.0,SSW,9.2,-,N/A,,Clear,210,2013-01-07 04:53:00
10:53 PM,12.9,5.0,71,30.29,10.0,SW,6.9,-,N/A,,Clear,220,2013-01-07 05:53:00
11:53 PM,9.0,1.9,73,30.30,10.0,South,9.2,-,N/A,,Clear,180,2013-01-07 06:53:00